Location: Sternwarte_Laufen
(47.9344°N, 12.9346°E)
Time: 16:08:12
(UTC+02:00)

ISS - Visible Passes

Search period start: 10 May 2026 00:00
Search period end: 20 May 2026 00:00
Orbit: 414 x 424 km, 51.6° (Epoch: 10 May)

Date Brightness Start Highest point End Pass type
(mag) Time Alt. Az. Time Alt. Az. Time Alt. Az.
10 May -1.4 00:56:13 10° WNW 00:57:24 19° WNW 00:57:24 19° WNW visible
10 May -3.6 22:31:18 10° WSW 22:34:38 73° NNW 22:38:00 10° ENE visible
11 May -2.5 00:08:31 10° WNW 00:11:44 42° N 00:12:09 39° NNE visible
11 May -3.9 21:43:40 10° WSW 21:47:01 83° SSE 21:50:22 10° ENE visible
11 May -2.6 23:20:47 10° W 23:24:01 43° N 23:26:25 16° ENE visible
12 May -1.7 00:57:51 10° WNW 00:59:21 24° WNW 00:59:21 24° WNW visible
12 May -2.8 22:33:02 10° W 22:36:18 48° N 22:39:34 10° ENE visible
13 May -2.8 00:10:12 10° WNW 00:13:26 48° N 00:13:26 48° N visible
13 May -3.1 21:45:17 10° W 21:48:35 57° NNW 21:51:54 10° ENE visible
13 May -2.6 23:22:31 10° WNW 23:25:44 43° N 23:27:24 23° ENE visible
14 May -1.4 00:59:22 10° WNW 01:00:21 18° WNW 01:00:21 18° WNW visible
14 May -2.5 22:34:46 10° WNW 22:37:58 42° N 22:41:12 10° ENE visible
15 May -2.9 00:11:43 10° WNW 00:14:17 48° NW 00:14:17 48° NW visible
15 May -2.6 21:47:00 10° W 21:50:13 43° N 21:53:27 10° ENE visible
15 May -3.2 23:24:03 10° WNW 23:27:21 57° NNE 23:28:12 41° ENE visible
16 May -0.9 01:00:56 10° WNW 01:01:08 11° WNW 01:01:08 11° WNW visible
16 May -2.9 22:36:21 10° WNW 22:39:37 48° N 22:42:07 15° E visible
17 May -2.2 00:13:11 10° WNW 00:15:02 29° W 00:15:02 29° W visible
17 May -2.7 21:48:36 10° WNW 21:51:50 43° N 21:55:03 10° ENE visible
17 May -4.0 23:25:28 10° WNW 23:28:50 84° SSW 23:28:56 81° SSE visible
18 May -3.6 22:37:46 10° WNW 22:41:07 72° NNE 22:42:51 26° E visible
19 May -1.4 00:14:50 10° W 00:15:47 16° W 00:15:47 16° W visible
19 May -3.2 21:50:03 10° WNW 21:53:21 56° NNE 21:56:39 10° E visible
19 May -2.9 23:26:56 10° WNW 23:29:41 37° SW 23:29:41 37° SW visible
